Location: Hopewell Observatory
(38.8698°N, 77.6988°W)
Time: 02:48:02
(UTC-05:00)

Amateur Radio Satellites - All Passes

Search period start: 12 February 2016 02:18
Search period end: 13 February 2016 02:18
Location: Hopewell Observatory, 38.8698°N, 77.6988°W

Satellite Date Start Highest point End Downlink Frequencies (MHz)
Time Altitude Azimuth
AO-7 12 Feb 02:18:33 02:21:42 12° 89° (E) 02:24:50 29.400- 29.500
MOZHAYETS 4 12 Feb 02:22:24 02:25:09 16° 65° (ENE) 02:27:53
BEESAT 2 12 Feb 02:38:12 02:41:48 33° 246° (WSW) 02:45:22 435.950
ITUPSAT 1 12 Feb 02:39:37 02:42:58 19° 266° (W) 02:46:23 437.325
PHONESAT 2.4 12 Feb 02:40:14 02:43:30 63° 3° (N) 02:46:44 2401.200-2431.200
Oscar 19 12 Feb 02:40:46 02:45:05 28° 293° (WNW) 02:49:24 437.125/150
CUSAT 1 12 Feb 02:44:49 02:51:58 34° 289° (WNW) 02:59:05 437.405
BEESAT 12 Feb 02:47:08 02:50:00 16° 268° (W) 02:52:51 436.000
YUBILEINY 12 Feb 02:50:48 02:59:23 63° 92° (E) 03:08:04 435.215
Cosmos 2504 12 Feb 03:01:55 03:05:53 14° 75° (ENE) 03:09:53 435.465 / 435.565
JAS-2 12 Feb 03:10:46 03:15:12 25° 296° (WNW) 03:19:22 435.910
AIST 2 12 Feb 03:13:22 03:17:26 52° 56° (ENE) 03:21:26 435.215
SO-50 12 Feb 03:14:17 03:17:27 17° 109° (ESE) 03:20:39 436.795
STARS 12 Feb 03:23:26 03:27:50 78° 257° (WSW) 03:32:15 437.465
Gurwin Techsat 1B 12 Feb 03:30:26 03:34:52 27° 293° (WNW) 03:39:17 435.225
HORYU 2 12 Feb 03:31:45 03:33:49 13° 92° (E) 03:35:53 437.375
DANDE 12 Feb 03:38:35 03:45:01 26° 294° (WNW) 03:51:47 436.750
KKS-1 12 Feb 03:47:53 03:51:25 23° 265° (W) 03:54:58 437.445
ITAMSAT 1 12 Feb 03:54:35 03:59:07 30° 293° (WNW) 04:03:38 435.822/435.867
MOZHAYETS 4 12 Feb 03:57:28 04:01:53 49° 261° (W) 04:06:21
Cosmos 2491 12 Feb 04:02:26 04:08:47 23° 279° (W) 04:15:10 435.465 / 435.565
AO-7 12 Feb 04:07:21 04:15:43 75° 106° (ESE) 04:23:59 29.400- 29.500
PHONESAT 2.4 12 Feb 04:17:33 04:20:47 61° 199° (SSW) 04:24:00 2401.200-2431.200
M-CUBED/EXP-1 PRIME 12 Feb 04:31:49 04:35:16 66° 107° (ESE) 04:38:55 437.505
AUBIESAT-1 12 Feb 04:39:26 04:42:55 68° 107° (ESE) 04:46:38 437.475
CUBESAT XI-V 12 Feb 04:44:32 04:49:04 50° 73° (ENE) 04:53:39 437.345
Cosmos 2504 12 Feb 04:49:06 04:57:39 78° 94° (E) 05:06:35 435.465 / 435.565
YUBILEINY 12 Feb 04:49:36 04:56:46 27° 291° (WNW) 05:04:01 435.215
SO-50 12 Feb 04:52:41 04:57:30 55° 305° (NW) 05:02:23 436.795
AIST 2 12 Feb 04:53:31 04:55:27 13° 252° (WSW) 04:57:21 435.215
HORYU 2 12 Feb 05:06:20 05:10:41 53° 287° (WNW) 05:15:01 437.375
BRITE-PL 12 Feb 05:45:13 05:46:48 12° 88° (E) 05:48:22 437.365/2234.400
CUTE-I 12 Feb 05:49:44 05:54:28 30° 96° (E) 05:59:09 437.470
PHONESAT 2.4 12 Feb 05:55:52 05:57:37 14° 214° (SW) 05:59:22 2401.200-2431.200
AO-7 12 Feb 06:01:20 06:07:39 25° 305° (NW) 06:13:58 29.400- 29.500
Cubesat XI-IV 12 Feb 06:04:00 06:09:06 41° 99° (E) 06:14:09 437.490
STRAND 1 12 Feb 06:23:51 06:28:56 70° 74° (ENE) 06:34:03 437.568
CUBESAT XI-V 12 Feb 06:24:00 06:26:43 15° 269° (W) 06:29:27 437.345
GOMX 1 12 Feb 06:36:50 06:40:03 20° 93° (E) 06:43:11 467.674
Cosmos 2504 12 Feb 06:45:31 06:51:59 23° 294° (WNW) 06:58:39 435.465 / 435.565
PRISM 12 Feb 06:50:34 06:54:24 37° 71° (ENE) 06:58:17 437.425
LilacSat-2 12 Feb 06:56:19 06:59:59 48° 286° (WNW) 07:03:38 437.200
BRITE-PL 12 Feb 07:21:15 07:25:49 56° 286° (WNW) 07:30:03 437.365/2234.400
O/OREOS (USA 219) 12 Feb 07:28:27 07:32:54 77° 110° (ESE) 07:37:25 437.305
CUTE-I 12 Feb 07:29:42 07:34:27 33° 292° (WNW) 07:39:11 437.470
HO-68 12 Feb 07:33:37 07:39:36 28° 95° (E) 07:45:32 435.675
DOVE 4 12 Feb 07:42:20 07:46:28 56° 100° (E) 07:50:32 437.250
Cubesat XI-IV 12 Feb 07:44:37 07:48:54 25° 295° (WNW) 07:53:10 437.490
CUTE 1.7 + AOD 2 12 Feb 07:50:13 07:53:53 27° 96° (E) 07:57:32 437.475
SEEDS 12 Feb 07:52:21 07:55:38 21° 94° (E) 07:58:54 437.485
Cosmos 2499 12 Feb 07:55:03 07:59:24 15° 76° (ENE) 08:03:46 435.465 / 435.565
AAUSAT CUBESAT 2 12 Feb 08:00:24 08:02:55 15° 92° (E) 08:05:25 437.432
STRAND 1 12 Feb 08:06:28 08:08:35 12° 270° (W) 08:10:43 437.568
JUGNU 12 Feb 08:08:39 08:09:55 11° 175° (S) 08:11:11 437.505
CUBEBUG 2 12 Feb 08:09:25 08:11:05 12° 91° (E) 08:12:46 437.445
GOMX 1 12 Feb 08:14:26 08:18:14 29° 290° (WNW) 08:21:52 467.674
GONETS M04 12 Feb 08:16:47 08:25:03 51° 89° (E) 08:33:21
AO-85 12 Feb 08:17:07 08:19:02 12° 104° (ESE) 08:21:00 145.980
CINEMA 3 12 Feb 08:17:53 08:21:53 45° 99° (E) 08:25:56 145.822/145.860
PRISM 12 Feb 08:27:12 08:29:52 16° 266° (W) 08:32:33 437.425
UNISAT 6 12 Feb 08:31:21 08:32:19 11° 63° (ENE) 08:33:18 437.425
CANX-2 12 Feb 08:35:17 08:39:35 78° 285° (WNW) 08:43:53 2200.000
ZACube-1 12 Feb 08:51:44 08:54:47 19° 94° (E) 08:57:50 437.345
DELFI C3 12 Feb 08:54:28 08:56:18 13° 92° (E) 08:58:09 145.870
FUNcube-1 12 Feb 08:59:12 09:02:30 22° 95° (E) 09:05:51 145.935
COMPASS 1 12 Feb 09:08:18 09:12:30 67° 284° (WNW) 09:16:42 437.405
O/OREOS (USA 219) 12 Feb 09:11:31 09:12:53 11° 307° (NW) 09:14:16 437.305
ANTELSAT 12 Feb 09:13:10 09:16:57 31° 71° (ENE) 09:20:44 437.575/2403.000
AIST 1 12 Feb 09:14:32 09:16:31 13° 85° (E) 09:18:29
TIGRISAT 12 Feb 09:19:01 09:22:54 34° 71° (ENE) 09:26:45 435.000
HO-68 12 Feb 09:20:37 09:27:35 54° 292° (WNW) 09:34:30 435.675
DOVE 4 12 Feb 09:22:19 09:23:40 11° 297° (WNW) 09:25:01 437.250
CUTE 1.7 + AOD 2 12 Feb 09:26:09 09:29:36 24° 291° (WNW) 09:33:03 437.475
Oscar 11 12 Feb 09:27:31 09:31:51 64° 101° (ESE) 09:36:10 145.826/435.025
SEEDS 12 Feb 09:27:38 09:31:21 30° 289° (WNW) 09:35:04 437.485
AAUSAT CUBESAT 2 12 Feb 09:34:38 09:38:35 40° 287° (WNW) 09:42:31 437.432
UWE-3 12 Feb 09:38:54 09:43:09 84° 285° (WNW) 09:47:29 435.000/436.395/437.385
Cosmos 2499 12 Feb 09:42:19 09:51:02 80° 94° (E) 09:59:57 435.465 / 435.565
CUBEBUG 2 12 Feb 09:43:54 09:47:59 51° 286° (WNW) 09:52:09 437.445
POLYITAN 1 12 Feb 09:46:56 09:49:47 18° 67° (ENE) 09:52:38 437.675
QB50P2 12 Feb 09:47:20 09:50:17 19° 67° (ENE) 09:53:14 145.880/145.840
AO-85 12 Feb 09:53:25 09:58:45 88° 301° (WNW) 10:04:18 145.980
CINEMA 3 12 Feb 09:56:30 09:58:40 14° 294° (WNW) 10:00:51 145.822/145.860
JUGNU 12 Feb 09:56:54 09:58:00 10° 186° (S) 09:59:05 437.505
PCSat 12 Feb 09:57:35 10:02:50 54° 113° (ESE) 10:08:07 145.827
UNISAT 6 12 Feb 10:04:13 10:08:29 66° 258° (WSW) 10:12:46 437.425
RS-15 12 Feb 10:04:33 10:14:17 38° 106° (ESE) 10:24:23 29.354- 29.394
GONETS M04 12 Feb 10:14:32 10:22:07 33° 289° (WNW) 10:29:48
POPSAT HIP 1 12 Feb 10:15:19 10:19:11 35° 71° (ENE) 10:23:02 437.405
NANOSAT C BR1 12 Feb 10:18:16 10:22:10 37° 72° (ENE) 10:26:03 145.865
DUCHIFAT 1 12 Feb 10:18:31 10:22:22 36° 72° (ENE) 10:26:13 145.980
HUMSAT D 12 Feb 10:22:45 10:26:54 59° 101° (E) 10:31:05 437.325/437.525
ZACube-1 12 Feb 10:27:18 10:31:07 34° 289° (WNW) 10:35:00 437.345
QB50P1 12 Feb 10:27:26 10:31:31 50° 73° (ENE) 10:35:37 145.935-145.965
DELFI C3 12 Feb 10:27:34 10:31:27 44° 286° (WNW) 10:35:17 145.870
FUNcube-1 12 Feb 10:35:05 10:38:45 29° 289° (WNW) 10:42:28 145.935
VELOX 1 12 Feb 10:48:18 10:51:31 19° 94° (E) 10:54:42 145.980
AIST 1 12 Feb 10:49:21 10:53:37 49° 280° (W) 10:57:55
ANTELSAT 12 Feb 10:50:30 10:53:43 20° 266° (W) 10:56:54 437.575/2403.000
TIGRISAT 12 Feb 10:56:41 10:59:41 18° 266° (W) 11:02:39 435.000
UKube-1 12 Feb 11:02:59 11:06:34 25° 96° (E) 11:10:09 .
AISAT 12 Feb 11:04:55 11:08:51 31° 97° (E) 11:12:44 437.250
Oscar 11 12 Feb 11:05:57 11:07:25 12° 297° (WNW) 11:08:54 145.826/435.025
BUGSAT 1 12 Feb 11:08:12 11:12:23 72° 76° (ENE) 11:16:32 437.445
CUBEBUG 1 12 Feb 11:16:40 11:20:38 34° 97° (E) 11:24:34 437.445
DX 1 12 Feb 11:19:25 11:23:37 46° 100° (E) 11:27:47 434.975-435.025
POLYITAN 1 12 Feb 11:21:25 11:25:19 36° 262° (W) 11:29:14 437.675
QB50P2 12 Feb 11:21:58 11:25:51 35° 262° (W) 11:29:44 145.880/145.840
JAS-2 12 Feb 11:36:04 11:41:11 21° 62° (ENE) 11:46:00 435.910
AO-85 12 Feb 11:36:38 11:40:05 17° 320° (NW) 11:43:33 145.980
ESTCUBE 1 12 Feb 11:37:13 11:41:48 82° 102° (ESE) 11:46:19 437.505/2401.250
SRMSAT 12 Feb 11:37:35 11:39:10 11° 183° (S) 11:40:45 437.500
Cosmos 2499 12 Feb 11:38:40 11:45:08 22° 294° (WNW) 11:51:41 435.465 / 435.565
50 SAT 12 Feb 11:42:11 11:45:59 70° 285° (WNW) 11:49:47 437.505
PCSat 12 Feb 11:42:20 11:46:33 23° 311° (NW) 11:50:48 145.827
CUSAT 1 12 Feb 11:42:46 11:47:09 24° 66° (ENE) 11:50:41 437.405
SO-50 12 Feb 11:46:28 11:49:07 14° 40° (NE) 11:51:43 436.795
POPSAT HIP 1 12 Feb 11:52:13 11:55:04 18° 266° (W) 11:57:56 437.405
NANOSAT C BR1 12 Feb 11:55:19 11:58:02 17° 267° (W) 12:00:45 145.865
DUCHIFAT 1 12 Feb 11:55:23 11:58:11 17° 266° (W) 12:01:00 145.980
HUMSAT D 12 Feb 12:00:38 12:02:02 11° 296° (WNW) 12:03:27 437.325/437.525
QB50P1 12 Feb 12:05:45 12:07:34 12° 268° (W) 12:09:24 145.935-145.965
RS-15 12 Feb 12:15:00 12:26:00 62° 308° (NW) 12:37:40 29.354- 29.394
Oscar 19 12 Feb 12:16:46 12:21:37 42° 70° (ENE) 12:26:29 437.125/150
VELOX 1 12 Feb 12:24:04 12:28:04 34° 290° (WNW) 12:32:03 145.980
DANDE 12 Feb 12:38:14 12:44:43 49° 74° (ENE) 12:49:35 436.750
UKube-1 12 Feb 12:38:57 12:42:33 26° 291° (WNW) 12:46:07 .
TISAT 1 12 Feb 12:41:24 12:45:18 37° 98° (E) 12:49:10 437.305
AISAT 12 Feb 12:41:45 12:45:09 22° 293° (WNW) 12:48:31 437.250
SPROUT 12 Feb 12:42:52 12:47:07 69° 284° (WNW) 12:51:20 437.525
CUBEBUG 1 12 Feb 12:53:31 12:56:42 20° 293° (WNW) 12:59:51 437.445
DX 1 12 Feb 12:56:54 12:59:25 15° 295° (WNW) 13:01:55 434.975-435.025
YUBILEINY 12 Feb 13:03:08 13:10:34 29° 70° (ENE) 13:17:54 435.215
ITUPSAT 1 12 Feb 13:04:27 13:06:08 12° 90° (E) 13:07:48 437.325
Gurwin Techsat 1B 12 Feb 13:09:57 13:15:03 50° 71° (ENE) 13:20:11 435.225
BEESAT 12 Feb 13:10:17 13:12:49 14° 92° (E) 13:15:19 436.000
Cosmos 2491 12 Feb 13:12:17 13:16:31 15° 76° (ENE) 13:20:43 435.465 / 435.565
AO-7 12 Feb 13:15:39 13:21:14 20° 52° (NE) 13:26:48 29.400- 29.500
JAS-2 12 Feb 13:17:55 13:25:36 78° 257° (WSW) 13:32:36 435.910
CUSAT 1 12 Feb 13:24:57 13:29:26 28° 274° (W) 13:32:58 437.405
SO-50 12 Feb 13:25:28 13:30:18 86° 241° (WSW) 13:34:56 436.795
ITAMSAT 1 12 Feb 13:31:44 13:36:36 42° 70° (ENE) 13:41:29 435.822/435.867
ISS 12 Feb 13:42:00 13:44:10 17° 130° (SE) 13:46:20 145.825
Oscar 19 12 Feb 13:57:09 14:01:05 22° 266° (W) 14:05:02 437.125/150
SWISSCUBE 12 Feb 14:01:15 14:05:59 54° 100° (E) 14:10:40 437.505
TISAT 1 12 Feb 14:17:58 14:20:40 17° 294° (WNW) 14:23:22 437.305
DANDE 12 Feb 14:22:24 14:26:51 20° 279° (W) 14:30:33 436.750
HORYU 2 12 Feb 14:29:56 14:31:15 11° 62° (ENE) 14:32:35 437.375
RS-15 12 Feb 14:32:59 14:41:36 23° 337° (NNW) 14:50:35 29.354- 29.394
ITUPSAT 1 12 Feb 14:39:36 14:44:24 68° 286° (WNW) 14:49:11 437.325
Cosmos 2504 12 Feb 14:44:50 14:51:46 27° 68° (ENE) 14:58:19 435.465 / 435.565
BEESAT 12 Feb 14:46:13 14:50:55 56° 287° (WNW) 14:55:36 436.000
Gurwin Techsat 1B 12 Feb 14:51:36 14:55:16 19° 267° (W) 14:58:57 435.225
YUBILEINY 12 Feb 14:59:13 15:07:50 60° 269° (W) 15:16:24 435.215
Cosmos 2491 12 Feb 15:03:11 15:11:53 84° 95° (E) 15:20:38 435.465 / 435.565
AO-7 12 Feb 15:04:30 15:12:53 88° 68° (ENE) 15:21:18 29.400- 29.500
JAS-2 12 Feb 15:08:18 15:11:17 13° 271° (W) 15:14:11 435.910
ITAMSAT 1 12 Feb 15:12:16 15:16:13 22° 266° (W) 15:20:12 435.822/435.867
STARS 12 Feb 15:14:56 15:18:12 20° 95° (E) 15:21:27 437.465
ISS 12 Feb 15:17:12 15:20:21 46° 326° (NNW) 15:23:30 145.825
M-CUBED/EXP-1 PRIME 12 Feb 15:18:07 15:21:44 71° 70° (ENE) 15:25:07 437.505
AUBIESAT-1 12 Feb 15:25:17 15:28:51 71° 70° (ENE) 15:32:15 437.475
KKS-1 12 Feb 15:38:54 15:43:20 74° 103° (ESE) 15:47:45 437.445
SWISSCUBE 12 Feb 15:40:25 15:43:19 16° 296° (WNW) 15:46:12 437.505
MOZHAYETS 4 12 Feb 15:53:37 15:58:01 41° 98° (E) 16:02:24
BEESAT 3 12 Feb 15:59:26 16:03:08 40° 115° (ESE) 16:06:53 437.485
O/OREOS (USA 219) 12 Feb 16:02:13 16:04:18 13° 54° (NE) 16:06:22 437.305
HORYU 2 12 Feb 16:02:51 16:07:13 68° 257° (WSW) 16:11:38 437.375
BEESAT 2 12 Feb 16:28:48 16:32:43 55° 118° (ESE) 16:36:40 435.950
Cosmos 2504 12 Feb 16:37:24 16:45:46 62° 269° (W) 16:53:31 435.465 / 435.565
CUBESAT XI-V 12 Feb 16:44:00 16:46:27 14° 91° (E) 16:48:52 437.345
AO-85 12 Feb 16:49:11 16:50:31 11° 34° (NE) 16:51:51 145.980
STARS 12 Feb 16:50:43 16:54:37 33° 290° (WNW) 16:58:30 437.465
RS-15 12 Feb 16:52:05 17:00:19 20° 14° (NNE) 17:08:43 29.354- 29.394
BRITE-PL 12 Feb 16:53:06 16:56:46 18° 65° (ENE) 17:00:22 437.365/2234.400
ISS 12 Feb 16:56:01 16:57:26 12° 344° (NNW) 16:58:50 145.825
AO-7 12 Feb 17:01:25 17:06:33 17° 269° (W) 17:11:45 29.400- 29.500
Cosmos 2491 12 Feb 17:03:56 17:09:48 20° 295° (WNW) 17:15:44 435.465 / 435.565
CUTE-I 12 Feb 17:10:15 17:15:16 44° 70° (ENE) 17:20:19 437.470
AIST 2 12 Feb 17:11:26 17:13:47 15° 109° (ESE) 17:16:08 435.215
KKS-1 12 Feb 17:18:30 17:19:17 10° 298° (WNW) 17:20:03 437.445
Cubesat XI-IV 12 Feb 17:24:42 17:29:55 60° 73° (ENE) 17:35:12 437.490
MOZHAYETS 4 12 Feb 17:31:38 17:34:52 19° 294° (WNW) 17:38:06
LilacSat-2 12 Feb 17:36:47 17:40:32 63° 76° (ENE) 17:44:19 437.200
BEESAT 3 12 Feb 17:38:13 17:41:03 19° 312° (NW) 17:43:55 437.485
O/OREOS (USA 219) 12 Feb 17:39:37 17:44:12 69° 252° (WSW) 17:48:45 437.305
GOMX 1 12 Feb 17:42:46 17:47:05 25° 69° (ENE) 17:51:15 467.674
HO-68 12 Feb 18:02:28 18:07:14 19° 57° (ENE) 18:12:01 435.675
BEESAT 2 12 Feb 18:08:33 18:10:56 15° 315° (NW) 18:13:20 435.950
CUBESAT XI-V 12 Feb 18:19:34 18:24:10 54° 286° (WNW) 18:28:42 437.345
AO-85 12 Feb 18:27:11 18:32:15 58° 55° (NE) 18:36:53 145.980
BRITE-PL 12 Feb 18:29:05 18:34:44 64° 260° (W) 18:40:13 437.365/2234.400
GONETS M04 12 Feb 18:29:05 18:35:51 24° 67° (ENE) 18:42:35
STRAND 1 12 Feb 18:36:11 18:40:29 26° 95° (E) 18:44:46 437.568
CUTE 1.7 + AOD 2 12 Feb 18:42:35 18:45:19 17° 67° (ENE) 18:48:04 437.475
SEEDS 12 Feb 18:44:19 18:46:19 13° 65° (ENE) 18:48:20 437.485
DOVE 4 12 Feb 18:45:44 18:50:39 53° 74° (ENE) 18:55:18 437.250
PCSat 12 Feb 18:46:49 18:51:45 34° 54° (NE) 18:56:38 145.827
AIST 2 12 Feb 18:47:51 18:51:52 47° 305° (NW) 18:55:55 435.215
CUTE-I 12 Feb 18:51:27 18:55:29 22° 266° (W) 18:59:33 437.470
RS-15 12 Feb 19:05:29 19:17:04 47° 46° (NE) 19:28:46 29.354- 29.394
Cubesat XI-IV 12 Feb 19:07:14 19:10:23 16° 268° (W) 19:13:33 437.490
CINEMA 3 12 Feb 19:18:11 19:22:23 37° 72° (ENE) 19:26:27 145.822/145.860
GOMX 1 12 Feb 19:19:57 19:24:57 39° 262° (W) 19:29:46 467.674
CANX-2 12 Feb 19:26:34 19:30:42 61° 76° (ENE) 19:34:54 2200.000
Cosmos 2499 12 Feb 19:36:57 19:43:39 26° 68° (ENE) 19:49:56 435.465 / 435.565
HO-68 12 Feb 19:46:55 19:54:05 82° 254° (WSW) 20:01:20 435.675
ZACube-1 12 Feb 19:47:49 19:49:45 13° 65° (ENE) 19:51:41 437.345
FUNcube-1 12 Feb 19:54:45 19:57:07 15° 66° (ENE) 19:59:27 145.935
COMPASS 1 12 Feb 19:57:34 20:01:39 67° 76° (ENE) 20:05:49 437.405
PRISM 12 Feb 20:08:23 20:12:34 74° 103° (ESE) 20:16:42 437.425
AO-85 12 Feb 20:09:14 20:12:09 16° 254° (WSW) 20:14:56 145.980
ISS 12 Feb 20:10:02 20:12:33 20° 25° (NNE) 20:15:02 145.825
STRAND 1 12 Feb 20:15:01 20:19:40 35° 291° (WNW) 20:24:19 437.568
CUTE 1.7 + AOD 2 12 Feb 20:16:57 20:20:52 38° 262° (W) 20:24:49 437.475
SEEDS 12 Feb 20:17:32 20:21:35 50° 261° (W) 20:25:41 437.485
Oscar 11 12 Feb 20:20:58 20:24:59 40° 72° (ENE) 20:29:02 145.826/435.025
AAUSAT CUBESAT 2 12 Feb 20:23:10 20:27:17 74° 259° (W) 20:31:28 437.432
GONETS M04 12 Feb 20:24:42 20:33:28 72° 266° (W) 20:42:14
DOVE 4 12 Feb 20:25:29 20:28:33 16° 267° (W) 20:31:31 437.250
PCSat 12 Feb 20:30:16 20:35:04 33° 251° (WSW) 20:39:50 145.827
UWE-3 12 Feb 20:34:35 20:38:47 66° 75° (ENE) 20:42:56 435.000/436.395/437.385
CUBEBUG 2 12 Feb 20:40:30 20:44:48 75° 259° (W) 20:49:01 437.445
CINEMA 3 12 Feb 20:56:25 20:59:36 19° 266° (W) 21:02:45 145.822/145.860
AIST 1 12 Feb 20:57:50 21:01:47 33° 77° (ENE) 21:05:40
DELFI C3 12 Feb 21:12:07 21:16:05 86° 72° (ENE) 21:20:06 145.870
HUMSAT D 12 Feb 21:13:07 21:16:47 33° 72° (ENE) 21:20:28 437.325/437.525
RS-15 12 Feb 21:18:07 21:29:55 58° 248° (WSW) 21:41:47 29.354- 29.394
ZACube-1 12 Feb 21:21:33 21:25:38 49° 261° (W) 21:29:41 437.345
FUNcube-1 12 Feb 21:29:02 21:33:01 42° 261° (W) 21:36:58 145.935
Cosmos 2499 12 Feb 21:29:17 21:37:22 60° 269° (W) 21:44:49 435.465 / 435.565
HO-68 12 Feb 21:40:00 21:42:46 12° 272° (W) 21:45:32 435.675
VELOX 1 12 Feb 21:45:06 21:47:52 16° 65° (ENE) 21:50:39 145.980
ISS 12 Feb 21:46:01 21:49:12 55° 222° (SW) 21:52:21 145.825
UKube-1 12 Feb 21:56:52 21:59:58 19° 66° (ENE) 22:03:05 .
UNISAT 6 12 Feb 21:57:17 22:01:01 26° 96° (E) 22:04:46 437.425
Oscar 11 12 Feb 21:58:40 22:01:17 16° 268° (W) 22:03:55 145.826/435.025
AISAT 12 Feb 22:01:21 22:05:00 25° 68° (ENE) 22:08:39 437.250
CUBEBUG 1 12 Feb 22:11:36 22:15:14 25° 69° (ENE) 22:18:53 437.445
DX 1 12 Feb 22:13:41 22:17:39 35° 71° (ENE) 22:21:39 434.975-435.025
50 SAT 12 Feb 22:21:05 22:24:35 43° 74° (ENE) 22:28:08 437.505
GONETS M04 12 Feb 22:25:52 22:28:35 12° 286° (WNW) 22:31:17
PHONESAT 2.4 12 Feb 22:32:22 22:34:26 16° 147° (SSE) 22:36:31 2401.200-2431.200
ESTCUBE 1 12 Feb 22:35:13 22:39:42 64° 74° (ENE) 22:44:12 437.505/2401.250
AIST 1 12 Feb 22:36:10 22:39:05 18° 273° (W) 22:41:58
ANTELSAT 12 Feb 22:41:44 22:46:08 86° 101° (E) 22:50:36 437.575/2403.000
TIGRISAT 12 Feb 22:47:30 22:51:52 87° 284° (WNW) 22:56:19 435.000
HUMSAT D 12 Feb 22:49:49 22:52:31 17° 267° (W) 22:55:14 437.325/437.525
BUGSAT 1 12 Feb 22:54:13 22:54:57 10° 91° (E) 22:55:41 437.445
POLYITAN 1 12 Feb 23:07:27 23:11:22 36° 98° (E) 23:15:15 437.675
QB50P2 12 Feb 23:07:55 23:11:52 38° 98° (E) 23:15:48 145.880/145.840
VELOX 1 12 Feb 23:19:41 23:23:58 46° 260° (W) 23:28:16 145.980
UKube-1 12 Feb 23:31:48 23:35:47 35° 262° (W) 23:39:46 .
TISAT 1 12 Feb 23:32:15 23:35:41 25° 69° (ENE) 23:39:07 437.305
UNISAT 6 12 Feb 23:34:02 23:37:38 26° 291° (WNW) 23:41:18 437.425
SPROUT 12 Feb 23:34:57 23:39:14 75° 77° (ENE) 23:43:32 437.525
POPSAT HIP 1 12 Feb 23:36:36 23:40:50 81° 102° (ESE) 23:45:02 437.405
AISAT 12 Feb 23:37:31 23:41:22 28° 264° (W) 23:45:14 437.250
DUCHIFAT 1 12 Feb 23:39:08 23:43:20 81° 103° (ESE) 23:47:31 145.980
NANOSAT C BR1 12 Feb 23:39:12 23:43:25 85° 102° (ESE) 23:47:37 145.865
CUBEBUG 1 12 Feb 23:47:38 23:51:25 27° 264° (W) 23:55:13 437.445
QB50P1 12 Feb 23:48:58 23:53:09 71° 285° (WNW) 23:57:20 145.935-145.965
DX 1 12 Feb 23:50:45 23:53:55 19° 266° (W) 23:57:06 434.975-435.025
50 SAT 12 Feb 23:57:53 23:58:50 11° 268° (W) 23:59:47 437.505
DANDE 13 Feb 00:04:28 00:07:45 13° 77° (ENE) 00:11:06 436.750
PHONESAT 2.4 13 Feb 00:08:03 00:11:19 67° 162° (SSE) 00:14:35 2401.200-2431.200
ITUPSAT 1 13 Feb 00:10:16 00:12:25 13° 62° (ENE) 00:14:36 437.325
ESTCUBE 1 13 Feb 00:15:34 00:16:54 11° 270° (W) 00:18:15 437.505/2401.250
BEESAT 13 Feb 00:15:53 00:18:35 15° 63° (ENE) 00:21:18 436.000
BEESAT 3 13 Feb 00:18:42 00:21:30 18° 47° (NE) 00:24:16 437.485
BUGSAT 1 13 Feb 00:26:44 00:30:39 53° 286° (WNW) 00:34:33 437.445
Oscar 19 13 Feb 00:30:46 00:33:53 16° 92° (E) 00:36:58 437.125/150
JAS-2 13 Feb 00:33:14 00:34:37 11° 88° (E) 00:35:59 435.910
CUSAT 1 13 Feb 00:40:29 00:47:55 43° 90° (E) 00:55:16 437.405
POLYITAN 1 13 Feb 00:44:05 00:46:54 18° 293° (WNW) 00:49:42 437.675
QB50P2 13 Feb 00:44:38 00:47:22 17° 294° (WNW) 00:50:05 145.880/145.840
BEESAT 2 13 Feb 00:48:42 00:51:56 23° 49° (NE) 00:55:09 435.950
SWISSCUBE 13 Feb 01:06:22 01:11:00 54° 73° (ENE) 01:15:40 437.505
TISAT 1 13 Feb 01:07:44 01:11:15 25° 264° (W) 01:14:47 437.305
Cosmos 2491 13 Feb 01:15:23 01:23:27 39° 74° (ENE) 01:31:30 435.465 / 435.565
Gurwin Techsat 1B 13 Feb 01:28:05 01:32:11 22° 94° (E) 01:36:14 435.225
DANDE 13 Feb 01:41:20 01:49:09 69° 94° (E) 01:57:34 436.750
ITUPSAT 1 13 Feb 01:44:55 01:49:40 68° 258° (WSW) 01:54:27 437.325
PHONESAT 2.4 13 Feb 01:45:22 01:48:38 63° 359° (N) 01:51:53 2401.200-2431.200
ITAMSAT 1 13 Feb 01:46:56 01:50:12 16° 92° (E) 01:53:26 435.822/435.867
BEESAT 13 Feb 01:51:13 01:55:53 57° 259° (W) 02:00:35 436.000
BEESAT 3 13 Feb 01:55:42 01:59:25 40° 244° (WSW) 02:03:06 437.485
YUBILEINY 13 Feb 02:02:41 02:10:16 34° 85° (E) 02:17:54 435.215
STARS 13 Feb 02:11:06 02:13:52 17° 65° (ENE) 02:16:39 437.465
